Погода в Ангарске

Россия / Иркутская область     52°32′39″N   103°53′17″E
темп.,
°C
ветер,
м/с
пор.,
м/с
влажн.,
%
обл.,
%
осадки,
мм/ч
давл.,
гПа
погр.,
м
17 июня, чт
чт1723:00+13сз61472100 0.4 1012749
02:00+10зсз5138684 0.9 1014440
05:00+8зсз5149388 0.0 1015390
08:00+13зсз5127587 0.1 1015600
11:00+18сз585151 0.1 10141456
14:00+20сз4746100 0.1 10122058
17:00+21сз574218 0.0 10112116
20:00+18сз23580 0.0 101065
18 июня, пт
пт1823:00+12з22710 0.0 101117
02:00+9зсз22800 0.0 101119
05:00+8зсз22850 0.0 101015
08:00+15зсз35613 0.0 1009345
11:00+21сз47420 0.0 10071459
14:00+24сз58335 0.0 10052397
17:00+24ссз573455 0.0 10052136
20:00+20сз225436 0.0 100535
19 июня, сб
сб1923:00+14зюз11665 0.0 100511
02:00+12зюз00755 0.0 100510
05:00+12зюз117798 0.0 100613
08:00+15сз1368100 0.0 1005149
11:00+20в21545 0.0 1004412
14:00+25вюв22411 0.0 10031249
17:00+25юв224012 0.0 10011139
20:00+20зсз115979 0.0 100213
20 июня, вс
вс2023:00+16ююв227418 0.0 100213
02:00+13юв367092 0.0 1003107
05:00+12юв3973100 0.2 1003195
08:00+16ююв266599 0.3 1004371
11:00+21ююв465196 0.0 1003841
14:00+25юв354121 0.2 10021098
17:00+27юв454097 0.0 9991426
20:00+20юз3765100 0.0 1003117
21 июня, пн
пн2123:00+16ссв1187100 0.0 100415
02:00+14ю119275 0.0 100510
05:00+12ююв119042 0.0 100612
08:00+17вюв11695 0.0 1007298
11:00+22вюв2157100 0.0 1006891
14:00+25вюв335136 0.0 10051227
17:00+26юв33451 0.0 10041565
20:00+22ююв366267 0.0 1004190